Regional Weather Roundup
Issued by NWS

Home | Current Version | Previous Version | Graphics & Text | Print | Product List | Glossary On
Versions: 1 2 3 4 5 6 7 8 9 10 11 12 13 14 15 16 17 18 19 20 21 22 23 24 25 26 27 28 29 30 31 32 33 34 35 36 37 38 39 40 41 42 43 44 45 46 47 48 49 50
000
ASUS43 KOAX 172302
RWRNE

WEATHER ROUNDUP FOR NEBRASKA
NATIONAL WEATHER SERVICE OMAHA NE
500 PM CST WED DEC 17 2014

NOTES: SATELLITE DATA IS BEING USED TO AUGMENT CLOUD COVER ABOVE
       12000 FEET.
       "FAIR" INDICATES FEW OR NO CLOUDS BELOW 12,000 FEET WITH NO
       SIGNIFICANT WEATHER AND/OR OBSTRUCTIONS TO VISIBILITY.

  * THESE STATIONS DO NOT REPORT WEATHER SUCH AS RAIN...SNOW OR FOG.

NEZ001>004-019>022-054>056-180000-
NEBRASKA PANHANDLE

CITY           SKY/WX    TMP DP  RH WIND       PRES   REMARKS
SCOTTSBLUFF    CLEAR     20  17  88 E9        29.96R WCI   9
ALLIANCE       CLOUDY    23  21  92 S13       29.97R WCI  11
CHADRON        PTCLDY    24  18  77 S6        29.98R WCI  17
SIDNEY         CLOUDY    22  20  92 S12       29.97R FOG     WCI  10
$$

NEZ057>060-069>072-079>082-180000-
SOUTHWEST NEBRASKA

CITY           SKY/WX    TMP DP  RH WIND       PRES   REMARKS
NORTH PLATTE   CLOUDY    22  21  96 SE8       30.09R FOG     WCI  12
IMPERIAL       CLOUDY    23  20  88 S6        30.05S WCI  16
MCCOOK         CLOUDY    23  22  96 E8        30.10S FOG     WCI  14
$$

NEZ005>010-023>029-035>040-094-180000-
NORTH CENTRAL NEBRASKA

CITY           SKY/WX    TMP DP  RH WIND       PRES   REMARKS
VALENTINE      CLOUDY    22  19  89 S12       30.09R WCI  10
BROKEN BOW     CLOUDY    22  19  89 SE7       30.12S WCI  13
ORD            CLOUDY    22  18  85 SE6       30.16S WCI  14
$$

NEZ041-046>049-061>064-073>077-083>087-180000-
SOUTH CENTRAL NEBRASKA

CITY           SKY/WX    TMP DP  RH WIND       PRES   REMARKS
GRAND ISLAND   CLOUDY    25  19  78 E8        30.19S WCI  16
HASTINGS       CLOUDY    25  19  78 E7        30.16S WCI  17
KEARNEY *      CLOUDY    25  19  80 E7        30.15F WCI  17
$$

NEZ011>018-030>034-042>045-180000-
NORTHEAST NEBRASKA

CITY           SKY/WX    TMP DP  RH WIND       PRES   REMARKS
NORFOLK        CLOUDY    25  15  66 E7        30.21F WCI  17
BLAIR          CLOUDY    27  18  69 NE5       30.25R WCI  22
COLUMBUS *     CLOUDY    25  12  58 E6        30.24R WCI  18
TEKAMAH        CLOUDY    26  17  68 VRB3      30.28R
$$

NEZ050>053-065>068-078-088>093-180000-
SOUTHEAST NEBRASKA

CITY           SKY/WX    TMP DP  RH WIND       PRES   REMARKS
LINCOLN        CLOUDY    26  17  68 E6        30.26R WCI  19
OMAHA EPPLEY   CLOUDY    28  16  60 E5        30.28S WCI  23
FALLS CITY     CLOUDY    28  19  69 E6        30.26S WCI  22
$$

NEZ044-045-051>053-067-180000-
OMAHA AREA

CITY           SKY/WX    TMP DP  RH WIND       PRES   REMARKS
OMAHA EPPLEY   CLOUDY    28  16  60 E5        30.28S WCI  23
BLAIR          CLOUDY    27  18  69 NE5       30.25R WCI  22
OFFUTT AFB     CLOUDY    28  18  66 NE5       30.26S WCI  22
$$


USA.gov is the U.S. government's official web portal to all federal, state and local government web resources and services.